Other Surface Observations
Issued by NWS Charleston, SC

Home | Current Version | Previous Version | Text Only | Print | Product List | Glossary On
Versions: 1 2 3 4 5 6 7 8 9 10 11 12 13 14 15 16 17 18 19 20 21 22 23 24 25 26 27 28 29 30 31 32 33 34 35 36 37 38 39 40 41 42 43 44 45 46 47 48 49 50
000
SXUS52 KCHS 291625
OSOCHS

MARINE OBSERVATIONS
NATIONAL WEATHER SERVICE CHARLESTON SC
1200 PM EDT FRI AUG 29 2014

...DOWNTOWN CHARLESTON AND HARBOR...

CITY           SKY/WX    TMP DP  RH WIND       PRES   REMARKS
WATERFRONT PRK   N/A     84 N/A N/A SE7         N/A
FORT JOHNSON   NOT AVBL

...LAKE MOULTRIE...

CITY           SKY/WX    TMP DP  RH WIND       PRES   REMARKS
PINOPOLIS        N/A     84  73  70 N3        30.04S HX  91

...LAKE AND SUPPLEMENTAL COASTAL OBSERVATIONS...

STATION/POSITION TIME  TEMP    WIND        PRES    WAVE   SWELL
                       AIR SEA DIR/SP/G            HT/PER HT/PER/DIR
                 (UTC) (F)     (DEG/KT/KT) (MB)    (FT/S) (FT/S/D)
FORT PULASKI     1600   84     280/  2/  3 1019.0F
SAPELO ISLAND    1600   88     130/  3     1019.0F
UPR LAKE MARION  NOT AVBL
WINYAH BAY       1600   83     110/  5     1019.0S
LAKE MURRAY      1600   84     190/  4/  5 1018.6S
ACE BASIN NERRS  1600   85     210/  1     1019.0S


...C-MAN AND BUOY OBSERVATIONS...

STATION/POSITION TIME  TEMP    WIND        PRES    WAVE   SWELL
                       AIR SEA DIR/SP/G            HT/PER HT/PER/DIR
                 (UTC) (F)     (DEG/KT/KT) (MB)    (FT/S) (FT/S/D)
BUOY 41004       1600   82 84  330/  4/  4 1018.7S   3/ 9   3/ 9
BUOY 41008       1600   82 85   40/  6/  8 1018.8R   2/ 9   2/ 90/ 9
FOLLY BEACH CMAN 1600   82     100/  6/  7 1019.5F
CAPERS NS BUOY   NOT AVBL
FRIPP NS BUOY    NOT AVBL
5E ST. MARYS GA  1600      84                N/A     3/ 9
FRYING PAN BUOY  NOT AVBL
BUOY 41025       1600   79     280/  6/  8 1020.0R   3/ 9   3/110/ 9
CAPE LOOKOUT NC  1600   82     240/  5/  7 1019.6F
BUOY 41002       1514   80 83  100/  6/  6 1021.1R   4/ 8   5/110/ 8
BUOY 41010       1600   84 83  220/  4/  6 1019.1R   3/ 8   3/100/ 8
BUOY 41012       NOT AVBL
ST AUGUSTINE FL  1600   82     140/  6/  7 1019.1F


$$



USA.gov is the U.S. government's official web portal to all federal, state and local government web resources and services.